Weather History for Eureka, NV

Change the Weather History Date:

Monday, December 2, 2013

  Actual Average Record
Temperature  
Mean Temperature 44 °F 28 °F  
Max Temperature 56 °F 42 °F 57 °F (2008)
Min Temperature 32 °F 14 °F -11 °F (2004)
Degree Days  
Heating Degree Days 21 37  
Month to date heating degree days 46 74  
Since 1 July heating degree days 1657 1833  
Cooling Degree Days 0 0  
Month to date cooling degree days 0 0  
Year to date cooling degree days 585 288  
Moisture  
Dew Point 21 °F    
Average Humidity 45    
Maximum Humidity 69    
Minimum Humidity 20    
Precipitation  
Precipitation 0.00 in 0.01 in 0.13 in (2012)
Month to date precipitation 0.00 0.03  
Year to date precipitation 7.47 8.42  
Sea Level Pressure  
Sea Level Pressure 29.87 in    
Wind  
Wind Speed 14 mph (SW)    
Max Wind Speed 26 mph    
Max Gust Speed 35 mph    
T = Trace of Precipitation, MM = Missing Value Source: NWS Daily Summary

Daily Weather History Graph

Daily Weather History Graph

Search for Another Location

Airport:

Trip Planner

Search our weather history database for the weather conditions in past years. The results will help you decide how hot, cold, wet, or windy it might be!

Date:

Astronomy

Dec. 02, 2013 Rise Set
Actual Time 6:46 AM PST 4:20 PM PST
Civil Twilight 6:16 AM PST 4:50 PM PST
Nautical Twilight 5:43 AM PST 5:23 PM PST
Astronomical Twilight 5:11 AM PST 5:56 PM PST
Moon 6:16 AM PST (12/2) 4:27 PM PST (12/2)
Length of Visible Light 10h 33m
Length of Day
9h 33m
Waning Crescent, 0% of the Moon is Illuminated
Dec 2
Waning Crescent
Dec 2
New
Dec 9
First Quarter
Dec 17
Full
Dec 25
Last Quarter

Hourly Weather History & Observations

Time (PST) Temp. Windchill Dew Point Humidity Pressure Visibility Wind Dir Wind Speed Gust Speed Precip Events Conditions
12:53 AM 36.0 °F 29.0 °F 24.1 °F 62% 30.17 in - South 9.2 mph - N/A   Unknown
1:53 AM 36.0 °F 28.5 °F 24.1 °F 62% 30.15 in - South 10.4 mph - N/A   Unknown
2:53 AM 33.1 °F 28.7 °F 23.0 °F 66% 30.13 in - SE 4.6 mph - N/A   Unknown
3:53 AM 33.1 °F 30.0 °F 24.1 °F 70% 30.11 in - Variable 3.5 mph - N/A   Unknown
4:53 AM 34.0 °F 28.0 °F 25.0 °F 70% 30.09 in - South 6.9 mph - N/A   Unknown
5:53 AM 34.0 °F 26.0 °F 24.1 °F 67% 30.08 in - SSW 10.4 mph - N/A   Unknown
6:53 AM 34.0 °F 27.2 °F 24.1 °F 67% 30.03 in - South 8.1 mph - N/A   Unknown
7:53 AM 45.0 °F 39.7 °F 19.9 °F 37% 30.01 in - West 10.4 mph - N/A   Unknown
8:53 AM 45.0 °F 39.7 °F 23.0 °F 42% 29.98 in - SW 10.4 mph - N/A   Unknown
9:53 AM 50.0 °F - 16.0 °F 26% 29.93 in - WSW 21.9 mph 27.6 mph N/A   Unknown
10:53 AM 54.0 °F - 14.0 °F 21% 29.89 in - West 21.9 mph 28.8 mph N/A   Unknown
11:53 AM 55.0 °F - 17.1 °F 23% 29.86 in - West 25.3 mph 32.2 mph N/A   Unknown
12:53 PM 53.1 °F - 17.1 °F 24% 29.83 in - SW 16.1 mph 23.0 mph N/A   Unknown
1:53 PM 55.0 °F - 16.0 °F 22% 29.79 in - WSW 17.3 mph 25.3 mph N/A   Unknown
2:53 PM 53.1 °F - 17.1 °F 24% 29.78 in - West 16.1 mph 27.6 mph N/A   Unknown
3:53 PM 52.0 °F - 17.1 °F 25% 29.77 in - WSW 17.3 mph 23.0 mph N/A   Unknown
4:53 PM 46.9 °F - 19.9 °F 34% 29.75 in - WSW 11.5 mph - N/A   Unknown
5:53 PM 46.0 °F 40.6 °F 19.0 °F 34% 29.73 in - WSW 11.5 mph - N/A   Unknown
6:53 PM 46.0 °F 39.6 °F 18.0 °F 33% 29.72 in - WSW 15.0 mph - N/A   Unknown
7:53 PM 48.0 °F - 19.0 °F 32% 29.67 in - West 13.8 mph 25.3 mph N/A   Unknown
8:53 PM 46.9 °F - 24.1 °F 41% 29.66 in - WSW 18.4 mph 24.2 mph N/A   Unknown
9:53 PM 45.0 °F 39.3 °F 28.0 °F 52% 29.64 in - WSW 11.5 mph - N/A   Unknown
10:53 PM 45.0 °F 38.2 °F 27.0 °F 49% 29.62 in - SW 15.0 mph 23.0 mph N/A   Unknown
11:53 PM 45.0 °F 37.1 °F 28.9 °F 53% 29.59 in - WSW 19.6 mph 31.1 mph N/A   Unknown